[[{"header":{"parameterUnit":"m.s-1","parameterCategory":2,"la1":30.2991,"la2":30.254,"lo1":-89.0895,"lo2":-89.0444,"dy":0.0017,"dx":0.0017,"nx":28,"ny":28,"refTime":"2024-12-12T09:00:00:Z","depth":"0","parameterNumber":2,"parameterNumberName":"U-component_of_CURRENTS"},"data":[0,0,0,0,0,0,0,0,0,0,0,0,0,0,0,0,0,0,0,0,0,0,0,0,0,0,0,0,0,0,0,0,0,0,0,0,0,0,0,0,0,0,0,0,0,0,0,0,0,0,0,0,0,0,0,0,0,0,0.2176,0.2176,0,0.215,0.215,0.2149,0.2119,0.2119,0.2119,0.2119,0.2085,0.2084,0.2084,0,0,0,0,0,0,0,0,0,0,0,0,0,0.2205,0.2204,0.2176,0.2176,0.2176,0.215,0.215,0.2149,0.2119,0.2119,0.2119,0.2119,0.2085,0.2085,0.2084,0,0,0,0,0,0,0,0,0,0,0,0,0,0.2185,0.2204,0.2176,0.216,0.2158,0.2151,0.215,0.2149,0.2119,0.2119,0.2119,0.2118,0.2086,0.2085,0.2084,0.2085,0,0,0.2081,0.208,0,0,0,0,0,0,0,0,0.2186,0.2183,0.2162,0.2161,0.2159,0.214,0.2148,0.2128,0.212,0.2132,0.2119,0.2118,0.2104,0.2102,0.2095,0.2083,0.2082,0.2081,0.208,0.2079,0.2079,0,0,0,0,0,0,0,0.2187,0.2185,0.2164,0.2162,0.216,0.2155,0.2152,0.2144,0.2119,0.2131,0.2129,0.213,0.2103,0.2096,0.2094,0.2081,0.2081,0.208,0.2079,0.2079,0.2102,0.2104,0,0,0,0,0,0,0.2195,0.2186,0.2165,0.2163,0.2175,0.2155,0.2151,0.2145,0.2119,0.2115,0.213,0.2129,0.2098,0.2095,0.2092,0.2118,0.2079,0.2079,0.2078,0.2101,0.2103,0.2104,0,0,0,0,0,0,0.2196,0.2193,0.2166,0.2176,0.2173,0.2155,0.2148,0.2144,0.214,0.2119,0.2115,0.2131,0.2097,0.2094,0.2094,0.2116,0.2078,0.2077,0.21,0.2102,0.2103,0.2154,0,0,0,0,0,0,0.2197,0.2193,0.2192,0.2177,0.2172,0.2167,0.2148,0.2144,0.2142,0.214,0.2118,0.2114,0.2097,0.2096,0.2093,0.2114,0.2076,0.2098,0.2101,0.2103,0.2151,0.2157,0.2163,0,0,0,0,0,0.2198,0.2195,0.2192,0.219,0.2171,0.2167,0.2165,0.215,0.2143,0.2144,0.2133,0.2115,0.2109,0.2096,0.2093,0.2113,0.2097,0.21,0.2103,0.2148,0.2156,0.2163,0,0,0,0,0,0,0.2204,0.2192,0.2188,0.2182,0.218,0.2163,0.2163,0.2156,0.2148,0.2146,0.2125,0.2121,0.2133,0.2117,0.2104,0.2129,0.2103,0.2105,0.2139,0.2146,0.2152,0.2165,0.2076,0,0,0,0,0,0.2207,0.2203,0.2195,0.2191,0.2192,0.2181,0.2178,0.2171,0.2162,0.2157,0.2144,0.2137,0.2142,0.2138,0.2136,0.2143,0.215,0.2157,0.2163,0.2169,0.2179,0.2224,0.2235,0.2113,0.2113,0.2113,0,0,0.2207,0.2202,0.2198,0.2193,0.2188,0.2196,0.2177,0.2177,0.2186,0.2156,0.2162,0.2158,0.215,0.2163,0.2167,0.2151,0.2205,0.2172,0.2177,0.2184,0.2228,0.224,0.2251,0.2115,0.2115,0.2114,0,0,0.221,0.2204,0.2204,0.2208,0.2209,0.2207,0.2212,0.2204,0.2202,0.2207,0.2199,0.2211,0.2199,0.2208,0.221,0.225,0.224,0.2247,0.2282,0.2327,0.2337,0.2346,0.2362,0.2372,0.2246,0.2246,0.2246,0,0.2213,0.2209,0.2206,0.2214,0.2217,0.2217,0.2224,0.223,0.2224,0.2232,0.2215,0.2236,0.2226,0.2263,0.2275,0.2265,0.2278,0.2253,0.2335,0.2345,0.2354,0.2367,0.2378,0.2248,0.2248,0.2248,0.2248,0,0.2219,0.2221,0.2224,0.2235,0.2242,0.2247,0.2259,0.2269,0.2268,0.2275,0.2305,0.23,0.2315,0.2318,0.2304,0.2365,0.235,0.2341,0.2317,0.2369,0.2379,0.239,0.2252,0.2251,0.2251,0.225,0,0,0.2208,0.2224,0.2224,0.223,0.225,0.2252,0.2284,0.2305,0.2331,0.2338,0.2369,0.2388,0.2394,0.2399,0.2395,0.2428,0.2493,0.2411,0.2412,0.2426,0.2576,0.251,0.2515,0.2502,0.2504,0.2506,0.2555,0,0.2211,0.2222,0.2234,0.225,0.2255,0.2275,0.2304,0.2331,0.2352,0.2387,0.241,0.2437,0.2425,0.2434,0.2473,0.2491,0.2525,0.2479,0.2523,0.2524,0.246,0.2527,0.2405,0.2434,0.2565,0.2566,0.2568,0,0.2209,0.2215,0.2225,0.225,0.2255,0.2272,0.2315,0.2344,0.2407,0.2427,0.2476,0.2491,0.2549,0.2524,0.2602,0.2574,0.2584,0.2593,0.2595,0.2525,0.2479,0.2406,0.2448,0.2363,0.2583,0.2582,0.2581,0,0.2186,0.2208,0.221,0.2218,0.2253,0.2266,0.2292,0.2352,0.2386,0.2461,0.249,0.2562,0.259,0.2637,0.2654,0.2637,0.2728,0.2704,0.2655,0.2649,0.255,0.2531,0.2516,0.2766,0.2766,0.2766,0.2766,0,0.2174,0.2177,0.2198,0.2199,0.2216,0.2249,0.2287,0.2332,0.2404,0.2447,0.251,0.2556,0.2623,0.2672,0.2687,0.2706,0.276,0.2679,0.267,0.2561,0.2544,0.2467,0.2408,0.2768,0.2767,0.2767,0.2767,0,0.2146,0.2159,0.2165,0.2194,0.2203,0.2217,0.2275,0.2308,0.2383,0.2443,0.2467,0.2569,0.2633,0.2682,0.2751,0.2734,0.2665,0.275,0.2602,0.2575,0.2427,0.2374,0.2294,0.2205,0.2705,0.2704,0.2703,0,0.213,0.2129,0.2152,0.2154,0.2164,0.2191,0.2213,0.229,0.2326,0.2441,0.2463,0.2554,0.2593,0.2676,0.2677,0.2697,0.2616,0.2585,0.253,0.2417,0.2354,0.228,0.2206,0.2416,0.2413,0.241,0.2408,0,0.2104,0.2113,0.2119,0.2122,0.2132,0.2147,0.218,0.2209,0.2295,0.2342,0.2411,0.2455,0.2535,0.2512,0.2542,0.2537,0.2423,0.2529,0.2463,0.2172,0.2041,0.1951,0.2371,0.2385,0.2387,0.2389,0.239,0.2391,0.2086,0.2081,0.2086,0.2082,0.209,0.2083,0.2071,0.2112,0.2148,0.2187,0.2296,0.2318,0.2353,0.2379,0.236,0.2243,0.225,0.2158,0.2118,0.2068,0.1932,0.2286,0.2257,0.2258,0.226,0.2261,0.2262,0,0.2053,0.2045,0.2043,0.2022,0.1995,0.2019,0.2027,0.1997,0.1988,0.2062,0.2092,0.2093,0.2061,0.2077,0.1979,0.1855,0.1785,0.1784,0.1657,0.1616,0.1982,0.1918,0.175,0.175,0.175,0.175,0.175,0.175,0.2036,0.201,0.1997,0.1925,0.1905,0.1832,0.1814,0.1788,0.1812,0.1777,0.1766,0.1798,0.1819,0.1744,0.1599,0.1542,0.1392,0.1317,0.1318,0.1576,0.1608,0.1639,0.1568,0.1329,0.1328,0.0898,0.0894,0.0892]},{"header":{"parameterUnit":"m.s-1","parameterCategory":2,"la1":30.2991,"la2":30.254,"lo1":-89.0895,"lo2":-89.0444,"dy":0.0017,"dx":0.0017,"nx":28,"ny":28,"refTime":"2024-12-12T09:00:00:Z","depth":"0","parameterNumber":3,"parameterNumberName":"V-component_of_CURRENTS"},"data":[0,0,0,0,0,0,0,0,0,0,0,0,0,0,0,0,0,0,0,0,0,0,0,0,0,0,0,0,0,0,0,0,0,0,0,0,0,0,0,0,0,0,0,0,0,0,0,0,0,0,0,0,0,0,0,0,0,0,0.0012,0.0012,0,-0.0022,-0.0023,-0.0023,-0.0045,-0.0045,-0.0045,-0.0045,-0.0078,-0.0079,-0.008,0,0,0,0,0,0,0,0,0,0,0,0,0,0.0028,0.0028,0.0012,0.0012,0.0011,-0.0022,-0.0023,-0.0023,-0.0045,-0.0045,-0.0045,-0.0045,-0.0078,-0.0079,-0.008,0,0,0,0,0,0,0,0,0,0,0,0,0,0.0009,0.0028,0.0012,-0.0003,-0.0004,-0.0022,-0.0023,-0.0024,-0.0045,-0.0045,-0.0045,-0.0045,-0.0078,-0.0079,-0.008,-0.0087,0,0,-0.0084,-0.0085,0,0,0,0,0,0,0,0,0.0011,0.0009,-0.0,-0.0002,-0.0004,-0.0028,-0.0029,-0.0044,-0.0045,-0.0031,-0.0045,-0.0045,-0.0061,-0.0063,-0.0071,-0.0089,-0.009,-0.0084,-0.0085,-0.0085,-0.0086,0,0,0,0,0,0,0,0.0012,0.001,-0.0003,-0.0001,-0.0003,-0.0018,-0.002,-0.0032,-0.0046,-0.0032,-0.0034,-0.0035,-0.0062,-0.007,-0.0072,-0.0091,-0.0084,-0.0085,-0.0086,-0.0087,-0.011,-0.011,0,0,0,0,0,0,0.002,0.0011,-0.0002,-0.0004,0.0005,-0.0018,-0.0021,-0.0021,-0.0046,-0.005,-0.0035,-0.0036,-0.0068,-0.0071,-0.0074,-0.007,-0.0085,-0.0087,-0.0087,-0.0111,-0.011,-0.011,0,0,0,0,0,0,0.0021,0.0019,-0.0,0.0004,0.0,-0.0018,-0.0018,-0.0022,-0.0028,-0.0048,-0.0052,-0.0037,-0.0068,-0.0072,-0.0078,-0.0072,-0.0087,-0.0088,-0.0111,-0.011,-0.011,-0.0071,0,0,0,0,0,0,0.0021,0.002,0.0022,0.0005,0.0001,-0.0004,-0.0018,-0.0023,-0.0028,-0.003,-0.005,-0.0054,-0.0068,-0.0076,-0.008,-0.0074,-0.0089,-0.0111,-0.0111,-0.011,-0.0073,-0.007,-0.0067,0,0,0,0,0,0.0022,0.0028,0.0023,0.0021,0.0005,-0.0004,-0.0007,-0.0021,-0.0028,-0.0027,-0.0041,-0.0053,-0.0077,-0.0077,-0.0081,-0.0075,-0.0111,-0.0111,-0.011,-0.0074,-0.007,-0.0067,0,0,0,0,0,0,0.0036,0.0026,0.002,0.0022,0.0013,-0.0007,-0.0007,-0.0017,-0.0029,-0.003,-0.005,-0.0054,-0.0059,-0.0073,-0.0072,-0.0082,-0.0097,-0.0097,-0.0068,-0.0064,-0.0062,-0.0046,-0.009,0,0,0,0,0,0.0041,0.0043,0.003,0.0032,0.0029,0.0011,0.0006,-0.0003,-0.0015,-0.0021,-0.0035,-0.0051,-0.0062,-0.0067,-0.0081,-0.0084,-0.0097,-0.0084,-0.0081,-0.0079,-0.0069,-0.0089,-0.0087,-0.0109,-0.0109,-0.0109,0,0,0.0046,0.0042,0.0042,0.0035,0.0026,0.003,0.0008,0.0004,0.0008,-0.0022,-0.0022,-0.0042,-0.0062,-0.0066,-0.007,-0.0075,-0.0079,-0.0078,-0.0076,-0.0067,-0.0088,-0.0086,-0.0084,-0.0109,-0.0109,-0.0109,0,0,0.0061,0.0055,0.0063,0.006,0.0052,0.0044,0.0046,0.003,0.0022,0.0019,-0.0002,-0.0016,-0.0033,-0.0046,-0.0054,-0.0044,-0.0066,-0.0052,-0.0022,-0.0041,-0.0039,-0.0038,-0.005,-0.005,-0.0048,-0.0048,-0.0048,0,0.0069,0.008,0.0064,0.0073,0.0076,0.0055,0.0068,0.0058,0.0042,0.0042,0.0026,-0.0001,-0.0022,-0.0023,-0.0023,-0.0037,-0.005,-0.0031,-0.0037,-0.0036,-0.0035,-0.0048,-0.0048,-0.0046,-0.0046,-0.0046,-0.0047,0,0.0092,0.0102,0.0107,0.0115,0.0114,0.0122,0.011,0.0107,0.0095,0.0087,0.0078,0.0044,0.0032,0.0018,0.0001,-0.0002,-0.0013,-0.0032,-0.0043,-0.003,-0.0045,-0.0046,-0.0043,-0.0044,-0.0044,-0.0045,0,0,0.0113,0.0122,0.0126,0.014,0.0139,0.0145,0.015,0.0154,0.0171,0.0139,0.0152,0.0116,0.0097,0.0085,0.0056,0.0036,0.0025,0.0009,0.0007,0.0002,-0.0012,-0.0017,-0.0019,0.0004,0.0004,0.0004,-0.0024,0,0.014,0.017,0.0165,0.0199,0.0215,0.0201,0.0213,0.0212,0.0208,0.0214,0.0172,0.0171,0.0123,0.0118,0.009,0.0047,0.0024,0.0035,-0.0028,-0.0029,-0.0031,-0.0019,0.0004,-0.0019,-0.0025,-0.0025,-0.0026,0,0.017,0.0189,0.0222,0.025,0.0256,0.027,0.0294,0.0305,0.0304,0.0299,0.0283,0.0251,0.0221,0.0173,0.0104,0.0114,0.0056,0.0014,0.0011,-0.0005,-0.0036,-0.0034,-0.0021,-0.0117,-0.0028,-0.0027,-0.0027,0,0.0202,0.0233,0.0264,0.0272,0.0294,0.0306,0.0321,0.0332,0.0359,0.0356,0.037,0.0323,0.0309,0.0228,0.0136,0.0121,0.0059,0.0025,-0.0035,-0.0036,-0.0033,-0.0034,-0.0115,-0.0029,-0.0029,-0.0029,-0.0029,0,0.0239,0.0266,0.0282,0.03,0.0348,0.0346,0.0401,0.0406,0.0432,0.0482,0.0419,0.044,0.0322,0.0268,0.0167,0.0074,0.0081,-0.0021,-0.0041,-0.0019,-0.0018,-0.0116,-0.0171,-0.003,-0.003,-0.0029,-0.0029,0,0.0271,0.0279,0.032,0.0349,0.0364,0.04,0.0459,0.0503,0.0512,0.0573,0.0573,0.0536,0.0472,0.0348,0.023,0.013,-0.0027,-0.0012,0.0026,0.0011,-0.0138,-0.019,-0.0287,-0.0355,-0.0079,-0.0079,-0.0079,0,0.029,0.0313,0.036,0.0395,0.041,0.0465,0.0511,0.0542,0.0598,0.064,0.0674,0.0627,0.0614,0.0438,0.0261,0.0093,-0.0025,-0.0014,-0.0045,-0.0135,-0.0208,-0.0253,-0.0307,-0.0028,-0.0028,-0.0027,-0.0027,0,0.0332,0.0345,0.0381,0.0449,0.05,0.0567,0.0633,0.0688,0.0737,0.0785,0.0837,0.0827,0.0673,0.0529,0.0295,0.0162,-0.0079,-0.0015,-0.012,-0.018,-0.0221,-0.0299,-0.002,-0.0026,-0.0026,-0.0026,-0.0026,-0.0026,0.0366,0.0398,0.0444,0.0509,0.0573,0.0653,0.0711,0.0792,0.0883,0.0954,0.0955,0.0959,0.0755,0.045,0.0264,-0.0053,-0.0073,-0.0153,-0.0209,-0.0246,-0.0311,-0.0024,-0.0048,-0.0048,-0.0049,-0.0049,-0.0049,0,0.0408,0.044,0.0503,0.0577,0.0646,0.0673,0.0782,0.0841,0.0947,0.1024,0.1067,0.0966,0.0729,0.0436,0.0034,-0.0197,-0.0307,-0.0331,-0.0391,-0.0441,-0.0189,-0.0186,-0.0226,-0.0226,-0.0226,-0.0226,-0.0226,-0.0225,0.0431,0.0487,0.0512,0.0617,0.0673,0.0758,0.0815,0.0909,0.098,0.1037,0.1035,0.1005,0.0767,0.0188,-0.0274,-0.039,-0.0579,-0.0591,-0.071,-0.0532,-0.052,-0.0508,-0.0519,-0.0628,-0.0629,-0.0935,-0.0938,-0.094]}],[{"header":{"parameterUnit":"m.s-1","parameterCategory":2,"la1":30.2991,"la2":30.254,"lo1":-89.0895,"lo2":-89.0444,"dy":0.0017,"dx":0.0017,"nx":28,"ny":28,"refTime":"2024-12-12T09:00:00:Z","depth":"2","parameterNumber":2,"parameterNumberName":"U-component_of_CURRENTS"},"data":[0,0,0,0,0,0,0,0,0,0,0,0,0,0,0,0,0,0,0,0,0,0,0,0,0,0,0,0,0,0,0,0,0,0,0,0,0,0,0,0,0,0,0,0,0,0,0,0,0,0,0,0,0,0,0,0,0,0,0.2162,0.2162,0,0.2142,0.2141,0.2141,0.2116,0.2116,0.2116,0.2116,0.2091,0.209,0.209,0,0,0,0,0,0,0,0,0,0,0,0,0,0.2184,0.2183,0.2162,0.2162,0.2162,0.2142,0.2141,0.2141,0.2116,0.2116,0.2116,0.2116,0.2091,0.209,0.209,0,0,0,0,0,0,0,0,0,0,0,0,0,0.2168,0.2183,0.2162,0.2149,0.2148,0.2142,0.2141,0.2141,0.2116,0.2116,0.2116,0.2116,0.2091,0.2091,0.209,0.2091,0,0,0.2088,0.2087,0,0,0,0,0,0,0,0,0.2169,0.2167,0.2151,0.215,0.2148,0.2133,0.214,0.2125,0.2116,0.2126,0.2116,0.2115,0.2106,0.2104,0.2098,0.209,0.2089,0.2087,0.2087,0.2087,0.2087,0,0,0,0,0,0,0,0.217,0.2168,0.2152,0.2151,0.2149,0.2146,0.2143,0.2137,0.2116,0.2125,0.2124,0.2125,0.2105,0.2099,0.2097,0.2088,0.2088,0.2087,0.2086,0.2086,0.2116,0.2117,0,0,0,0,0,0,0.2177,0.2169,0.2153,0.2151,0.2161,0.2145,0.2142,0.2137,0.2116,0.2114,0.2125,0.2124,0.21,0.2098,0.2096,0.2127,0.2087,0.2086,0.2086,0.2115,0.2116,0.2118,0,0,0,0,0,0,0.2177,0.2175,0.2153,0.2162,0.2159,0.2146,0.2139,0.2136,0.2135,0.2117,0.2114,0.2128,0.21,0.2097,0.2101,0.2124,0.2086,0.2085,0.2113,0.2115,0.2117,0.2168,0,0,0,0,0,0,0.2178,0.2175,0.2176,0.2162,0.2159,0.2156,0.214,0.2136,0.2137,0.2135,0.2119,0.2115,0.2099,0.2103,0.2101,0.2123,0.2084,0.2112,0.2114,0.2116,0.2165,0.2171,0.2177,0,0,0,0,0,0.2178,0.2178,0.2176,0.2175,0.2159,0.2157,0.2155,0.2143,0.2138,0.214,0.2133,0.2116,0.2116,0.2103,0.21,0.2123,0.2111,0.2114,0.2116,0.2162,0.217,0.2177,0,0,0,0,0,0,0.2185,0.2176,0.2173,0.2169,0.2168,0.2154,0.2156,0.215,0.2145,0.2145,0.2126,0.2123,0.2139,0.2124,0.211,0.214,0.2113,0.2116,0.2149,0.2156,0.2162,0.2174,0.2084,0,0,0,0,0,0.219,0.2187,0.2181,0.2179,0.2181,0.2171,0.217,0.2164,0.2158,0.2155,0.2145,0.2141,0.2148,0.2146,0.2145,0.2156,0.2162,0.2171,0.2177,0.2183,0.2192,0.2236,0.2247,0.2127,0.2127,0.2127,0,0,0.2191,0.2187,0.2185,0.2181,0.2178,0.2186,0.2169,0.2171,0.2181,0.2154,0.2164,0.2162,0.2157,0.2172,0.2178,0.2162,0.2218,0.2186,0.2191,0.2197,0.224,0.2252,0.2262,0.2129,0.2128,0.2128,0,0,0.2196,0.2192,0.2194,0.2198,0.2201,0.2199,0.2205,0.2198,0.2199,0.2207,0.22,0.2216,0.2208,0.2218,0.2221,0.2261,0.2252,0.226,0.2296,0.2339,0.2349,0.2359,0.2373,0.2383,0.226,0.226,0.226,0,0.2201,0.2199,0.2196,0.2205,0.2209,0.221,0.2217,0.2225,0.2222,0.2232,0.2216,0.2243,0.2234,0.2273,0.2285,0.2276,0.2289,0.2266,0.2348,0.2357,0.2366,0.2379,0.2389,0.2263,0.2262,0.2262,0.2262,0,0.2209,0.2212,0.2216,0.2228,0.2235,0.2241,0.2253,0.2266,0.2267,0.2275,0.2309,0.2307,0.2324,0.2328,0.2315,0.2376,0.2362,0.2353,0.2329,0.2381,0.2391,0.2401,0.2267,0.2266,0.2265,0.2264,0,0,0.2201,0.2217,0.2218,0.2224,0.2245,0.2247,0.2279,0.2302,0.2329,0.234,0.2373,0.2395,0.2402,0.2407,0.2406,0.2438,0.2502,0.2422,0.2423,0.2437,0.2584,0.2512,0.2516,0.2512,0.2514,0.2516,0.2563,0,0.2205,0.2218,0.2229,0.2246,0.2252,0.2272,0.2301,0.2329,0.2352,0.2389,0.2413,0.2443,0.2432,0.2443,0.2482,0.25,0.2533,0.2489,0.2532,0.2533,0.2463,0.2527,0.2276,0.2292,0.2573,0.2574,0.2575,0,0.2205,0.2212,0.2223,0.2249,0.2255,0.2272,0.2316,0.2345,0.2409,0.2431,0.2481,0.2497,0.2554,0.253,0.2607,0.2581,0.2591,0.26,0.2602,0.2526,0.2481,0.2288,0.23,0.2592,0.2591,0.259,0.2588,0,0.2184,0.2207,0.2211,0.2219,0.2254,0.2269,0.2295,0.2355,0.239,0.2465,0.2495,0.2566,0.2596,0.2641,0.2657,0.2642,0.2728,0.2708,0.2654,0.2647,0.2437,0.2409,0.2769,0.2769,0.2769,0.2768,0.2768,0,0.2174,0.2179,0.2201,0.2203,0.2223,0.2255,0.2294,0.2339,0.2411,0.2454,0.2517,0.256,0.2628,0.2674,0.2688,0.2702,0.2759,0.2676,0.2667,0.2446,0.2419,0.2679,0.2669,0.277,0.277,0.2769,0.2769,0,0.2148,0.2161,0.217,0.22,0.221,0.2226,0.2285,0.2318,0.2393,0.2452,0.2476,0.2575,0.2634,0.268,0.2747,0.2729,0.2753,0.2739,0.2462,0.242,0.2633,0.2624,0.2694,0.2692,0.269,0.2689,0.2688,0,0.2134,0.2134,0.2159,0.2163,0.2173,0.2203,0.2224,0.2301,0.2337,0.2449,0.247,0.2556,0.2587,0.2661,0.2638,0.2647,0.2725,0.2429,0.236,0.2647,0.2632,0.2625,0.2619,0.2094,0.2088,0.2084,0.208,0,0.211,0.212,0.2128,0.2131,0.2143,0.2159,0.2194,0.222,0.2305,0.2345,0.2407,0.2443,0.2498,0.2393,0.2406,0.2383,0.2408,0.2332,0.2715,0.2157,0.2088,0.2071,0.2083,0.2037,0.2041,0.2044,0.2046,0.2048,0.2095,0.2091,0.2097,0.2093,0.2103,0.2096,0.2082,0.2114,0.214,0.2157,0.2264,0.2218,0.2227,0.2117,0.2053,0.2001,0.2186,0.2077,0.2089,0.2107,0.2035,0.1967,0.1879,0.1882,0.1885,0.1887,0.1889,0,0.2058,0.2056,0.2054,0.2035,0.2004,0.2034,0.2039,0.1991,0.196,0.1982,0.1987,0.1791,0.1695,0.1715,0.1558,0.1566,0.1532,0.1506,0.1427,0.1471,0.151,0.1405,0.1082,0.108,0.1078,0.1076,0,0,0.2041,0.2014,0.2,0.1928,0.1913,0.184,0.1819,0.1754,0.1726,0.164,0.1567,0.1633,0.1661,0.1351,0.1306,0.1167,0.1315,0.1115,0.176,0.1712,0.1748,0.1835,0.1723,0,0,0,0,0]},{"header":{"parameterUnit":"m.s-1","parameterCategory":2,"la1":30.2991,"la2":30.254,"lo1":-89.0895,"lo2":-89.0444,"dy":0.0017,"dx":0.0017,"nx":28,"ny":28,"refTime":"2024-12-12T09:00:00:Z","depth":"2","parameterNumber":3,"parameterNumberName":"V-component_of_CURRENTS"},"data":[0,0,0,0,0,0,0,0,0,0,0,0,0,0,0,0,0,0,0,0,0,0,0,0,0,0,0,0,0,0,0,0,0,0,0,0,0,0,0,0,0,0,0,0,0,0,0,0,0,0,0,0,0,0,0,0,0,0,0.0078,0.0078,0,0.0046,0.0046,0.0046,0.0025,0.0025,0.0024,0.0024,-0.0006,-0.0007,-0.0008,0,0,0,0,0,0,0,0,0,0,0,0,0,0.0093,0.0092,0.0078,0.0078,0.0077,0.0047,0.0046,0.0045,0.0025,0.0025,0.0024,0.0024,-0.0006,-0.0007,-0.0008,0,0,0,0,0,0,0,0,0,0,0,0,0,0.0075,0.0092,0.0078,0.0064,0.0062,0.0047,0.0046,0.0045,0.0025,0.0025,0.0024,0.0024,-0.0006,-0.0007,-0.0008,-0.0014,0,0,-0.0012,-0.0012,0,0,0,0,0,0,0,0,0.0076,0.0075,0.0066,0.0065,0.0063,0.004,0.004,0.0026,0.0025,0.0038,0.0024,0.0024,0.001,0.0007,0.0,-0.0015,-0.0017,-0.0012,-0.0013,-0.0013,-0.0013,0,0,0,0,0,0,0,0.0078,0.0076,0.0064,0.0066,0.0064,0.005,0.0047,0.0037,0.0024,0.0037,0.0035,0.0034,0.0009,0.0001,-0.0001,-0.0017,-0.0012,-0.0013,-0.0014,-0.0014,-0.0037,-0.0036,0,0,0,0,0,0,0.0085,0.0077,0.0065,0.0064,0.0071,0.005,0.0047,0.0047,0.0024,0.0021,0.0034,0.0033,0.0003,0.0001,-0.0002,0.0001,-0.0013,-0.0014,-0.0015,-0.0037,-0.0037,-0.0036,0,0,0,0,0,0,0.0085,0.0084,0.0067,0.007,0.0067,0.005,0.005,0.0046,0.004,0.0022,0.0018,0.0031,0.0003,-0.0,-0.0007,-0.0001,-0.0015,-0.0016,-0.0037,-0.0037,-0.0036,-0.0,0,0,0,0,0,0,0.0086,0.0085,0.0087,0.0071,0.0067,0.0063,0.005,0.0046,0.0039,0.0038,0.0019,0.0015,0.0003,-0.0005,-0.0008,-0.0002,-0.0017,-0.0037,-0.0037,-0.0037,-0.0001,0.0001,0.0004,0,0,0,0,0,0.0087,0.0092,0.0087,0.0086,0.0071,0.0063,0.006,0.0047,0.004,0.004,0.0027,0.0016,-0.0006,-0.0005,-0.0009,-0.0004,-0.0037,-0.0037,-0.0037,-0.0003,0.0001,0.0003,0,0,0,0,0,0,0.0098,0.009,0.0084,0.0086,0.0078,0.006,0.0059,0.0049,0.0039,0.0037,0.0019,0.0015,0.001,-0.0003,-0.0002,-0.0011,-0.0024,-0.0024,0.0003,0.0006,0.0009,0.0024,-0.0018,0,0,0,0,0,0.0102,0.0105,0.0093,0.0095,0.0092,0.0075,0.007,0.0062,0.005,0.0045,0.0032,0.0017,0.0007,0.0003,-0.001,-0.0012,-0.0026,-0.0012,-0.001,-0.0008,0.0002,-0.0017,-0.0015,-0.0036,-0.0036,-0.0036,0,0,0.0106,0.0103,0.0104,0.0098,0.0089,0.0094,0.0072,0.0068,0.0072,0.0044,0.0044,0.0025,0.0008,0.0004,0.0001,-0.0004,-0.0009,-0.0007,-0.0005,0.0003,-0.0017,-0.0015,-0.0013,-0.0036,-0.0036,-0.0036,0,0,0.012,0.0114,0.0122,0.0119,0.0112,0.0105,0.0106,0.0091,0.0084,0.0081,0.0061,0.0049,0.0032,0.0022,0.0015,0.0024,0.0003,0.0016,0.0044,0.0026,0.0028,0.0029,0.0015,0.0014,0.002,0.002,0.002,0,0.0126,0.0138,0.0122,0.0132,0.0136,0.0115,0.0128,0.0118,0.0103,0.0104,0.0087,0.0063,0.0043,0.0044,0.0044,0.003,0.0017,0.0036,0.003,0.0031,0.0032,0.0017,0.0016,0.0022,0.0021,0.0021,0.0021,0,0.0148,0.0158,0.0163,0.0172,0.0172,0.0179,0.0169,0.0165,0.0153,0.0146,0.0138,0.0106,0.0095,0.0081,0.0065,0.0063,0.0051,0.0034,0.0025,0.0036,0.0019,0.0018,0.0024,0.0023,0.0023,0.0023,0,0,0.0166,0.0177,0.0182,0.0196,0.0196,0.0202,0.0208,0.0213,0.0229,0.0198,0.0211,0.0177,0.0157,0.0147,0.0118,0.01,0.0086,0.0072,0.007,0.0063,0.0048,0.0042,0.004,0.0067,0.0067,0.0067,0.0034,0,0.0192,0.0223,0.022,0.0253,0.0269,0.0256,0.027,0.027,0.0266,0.0272,0.0231,0.023,0.0183,0.0177,0.015,0.0108,0.0084,0.0097,0.0034,0.0033,0.003,0.0039,0.0063,0.0036,0.0033,0.0033,0.0032,0,0.0221,0.024,0.0274,0.0303,0.0309,0.0323,0.0348,0.036,0.0359,0.0354,0.0338,0.0307,0.0277,0.023,0.0162,0.0172,0.0114,0.0073,0.007,0.0054,0.0025,0.0023,0.0034,0.003,0.003,0.003,0.003,0,0.0251,0.0282,0.0314,0.0322,0.0346,0.0357,0.0374,0.0385,0.0413,0.0409,0.0422,0.0376,0.0361,0.0282,0.019,0.0176,0.0113,0.0083,0.0021,0.002,0.0024,0.0023,0.0028,0.0028,0.0029,0.0029,0.0029,0,0.0286,0.0312,0.033,0.0348,0.0396,0.0396,0.0449,0.0455,0.0481,0.053,0.0469,0.0487,0.0373,0.0319,0.022,0.0126,0.0133,0.0033,0.0013,0.0036,0.0037,0.0018,0.0017,0.0027,0.0028,0.0028,0.0028,0,0.0315,0.0324,0.0365,0.0395,0.041,0.0446,0.0504,0.0548,0.0557,0.0615,0.0615,0.0578,0.0512,0.0392,0.0276,0.0178,0.0078,0.0037,0.0074,0.006,-0.0012,-0.0011,-0.0031,-0.0032,-0.0032,-0.0032,-0.0033,0,0.0333,0.0355,0.0403,0.0437,0.0452,0.0507,0.0553,0.0584,0.0639,0.0678,0.0711,0.0662,0.0645,0.047,0.0299,0.0133,0.0093,0.0031,0.0003,-0.0,-0.0017,-0.0015,-0.0014,0.002,0.002,0.002,0.0021,0,0.0372,0.0385,0.042,0.0488,0.0538,0.0604,0.0669,0.0723,0.0772,0.0814,0.0861,0.0847,0.0695,0.0542,0.0312,0.0195,0.0059,0.0028,0.0021,0.0033,0.0046,0.003,0.003,0.0022,0.0022,0.0022,0.0022,0.0022,0.0403,0.0434,0.048,0.0544,0.0607,0.0686,0.0744,0.0819,0.0904,0.0961,0.096,0.0923,0.0766,0.0467,0.0291,0.0084,0.0085,-0.0006,-0.0005,-0.0005,0.0008,0.002,-0.0006,-0.0007,-0.0007,-0.0007,-0.0007,0,0.0442,0.0474,0.0535,0.0609,0.0676,0.0704,0.0811,0.0864,0.096,0.0999,0.1026,0.0855,0.0698,0.0496,0.0207,0.0044,0.0028,-0.0024,-0.0004,-0.0004,-0.0004,0.0009,-0.0005,-0.0005,-0.0006,-0.0006,0,0,0.0464,0.0519,0.0543,0.0647,0.0701,0.0786,0.0843,0.0923,0.0963,0.0996,0.0965,0.0937,0.0721,0.0508,0.0307,0.0145,0.0097,0.0106,0.0123,0.0171,0.0173,0.0029,0.0052,0,0,0,0,0]}],[{"header":{"parameterUnit":"m.s-1","parameterCategory":2,"la1":30.2991,"la2":30.254,"lo1":-89.0895,"lo2":-89.0444,"dy":0.0017,"dx":0.0017,"nx":28,"ny":28,"refTime":"2024-12-12T09:00:00:Z","depth":"4","parameterNumber":2,"parameterNumberName":"U-component_of_CURRENTS"},"data":[0,0,0,0,0,0,0,0,0,0,0,0,0,0,0,0,0,0,0,0,0,0,0,0,0,0,0,0,0,0,0,0,0,0,0,0,0,0,0,0,0,0,0,0,0,0,0,0,0,0,0,0,0,0,0,0,0,0,0.1372,0.1372,0,0.1399,0.1399,0.1399,0.143,0.143,0.1431,0.1432,0.1459,0.1459,0.1459,0,0,0,0,0,0,0,0,0,0,0,0,0,0.1344,0.1345,0.1372,0.1372,0.1373,0.1399,0.1399,0.1399,0.143,0.143,0.1431,0.1432,0.1459,0.1459,0.1459,0,0,0,0,0,0,0,0,0,0,0,0,0,0.136,0.1345,0.1372,0.1393,0.1395,0.1399,0.1399,0.1399,0.143,0.143,0.1431,0.1432,0.1459,0.1459,0.1459,0.1442,0,0,0.146,0.146,0,0,0,0,0,0,0,0,0.136,0.1361,0.1389,0.1391,0.1394,0.1414,0.1399,0.1414,0.1429,0.1414,0.1432,0.1433,0.1444,0.1446,0.1446,0.1443,0.1444,0.146,0.146,0.146,0.146,0,0,0,0,0,0,0,0.1358,0.136,0.1381,0.139,0.1392,0.14,0.1403,0.1402,0.1422,0.1416,0.1419,0.1424,0.1446,0.1446,0.1447,0.1445,0.146,0.146,0.146,0.146,0.1516,0.1518,0,0,0,0,0,0,0.1358,0.1359,0.138,0.1382,0.1381,0.14,0.1403,0.1405,0.1422,0.1427,0.1423,0.1426,0.1445,0.1447,0.1448,0.1507,0.146,0.1461,0.1461,0.1515,0.1517,0.1518,0,0,0,0,0,0,0.1357,0.1359,0.1379,0.1373,0.1376,0.1399,0.1401,0.1405,0.1435,0.1429,0.1433,0.1453,0.1446,0.1448,0.1476,0.1506,0.1461,0.1461,0.1513,0.1515,0.1517,0.1575,0,0,0,0,0,0,0.1356,0.1359,0.1375,0.1373,0.1377,0.1399,0.14,0.1405,0.1436,0.144,0.1455,0.1456,0.1447,0.1475,0.1476,0.1505,0.1461,0.1512,0.1514,0.1517,0.1571,0.1579,0.1585,0,0,0,0,0,0.1355,0.1366,0.1375,0.1379,0.1393,0.14,0.1403,0.1421,0.1437,0.1452,0.1467,0.1458,0.1492,0.1476,0.1477,0.1507,0.151,0.1514,0.1517,0.1568,0.1577,0.1585,0,0,0,0,0,0,0.1363,0.137,0.138,0.1394,0.1407,0.1406,0.1427,0.1438,0.1461,0.1476,0.147,0.1473,0.151,0.15,0.1483,0.1531,0.1501,0.1505,0.1541,0.1549,0.1556,0.1556,0.1461,0,0,0,0,0,0.1372,0.1385,0.139,0.1406,0.1415,0.1428,0.1441,0.1452,0.1465,0.1478,0.149,0.1504,0.1517,0.1528,0.1535,0.1556,0.1553,0.1578,0.1585,0.1591,0.1592,0.1617,0.1627,0.1528,0.1528,0.1528,0,0,0.138,0.1387,0.1396,0.141,0.1424,0.1439,0.1439,0.1465,0.1485,0.1476,0.1519,0.153,0.1529,0.1558,0.1574,0.1557,0.1618,0.1594,0.1599,0.1598,0.1622,0.1631,0.164,0.153,0.153,0.1529,0,0,0.1393,0.1412,0.1425,0.1438,0.1464,0.1468,0.1483,0.1501,0.1522,0.1555,0.1559,0.159,0.1607,0.1614,0.1617,0.1665,0.1655,0.1674,0.1708,0.1733,0.1741,0.1748,0.176,0.1767,0.1676,0.1676,0.1677,0,0.1409,0.1419,0.1432,0.1448,0.1463,0.1485,0.1502,0.1523,0.1552,0.1572,0.158,0.1629,0.1631,0.1663,0.1683,0.168,0.169,0.1676,0.1742,0.1749,0.1755,0.1765,0.1773,0.168,0.1679,0.1679,0.1679,0,0.1419,0.1442,0.1454,0.148,0.1498,0.1519,0.1542,0.1576,0.1607,0.1626,0.168,0.169,0.1719,0.1728,0.172,0.177,0.1761,0.1749,0.172,0.1769,0.1776,0.1783,0.1684,0.1683,0.1682,0.1681,0,0,0.1412,0.1453,0.146,0.1478,0.1517,0.1527,0.1573,0.1608,0.1646,0.1689,0.1733,0.1766,0.1788,0.1793,0.1797,0.1817,0.1872,0.1809,0.1809,0.1817,0.1927,0.1799,0.1794,0.1878,0.1879,0.188,0.1915,0,0.1419,0.1448,0.1469,0.1506,0.152,0.1559,0.1595,0.1638,0.1681,0.1732,0.1764,0.181,0.1807,0.1834,0.1859,0.187,0.1893,0.1863,0.188,0.1881,0.1759,0.1799,0.1885,0.192,0.1922,0.1923,0.1924,0,0.1413,0.1434,0.1467,0.1514,0.1526,0.156,0.1623,0.166,0.1734,0.1774,0.1832,0.1858,0.191,0.1897,0.1949,0.1935,0.194,0.1941,0.1943,0.1805,0.1765,0.1861,0.1936,0.1935,0.1934,0.1933,0.1933,0,0.1379,0.1429,0.1456,0.1473,0.1532,0.1568,0.1608,0.168,0.172,0.181,0.1852,0.1914,0.1956,0.198,0.1995,0.1984,0.2038,0.2017,0.1905,0.1896,0.1975,0.1967,0.205,0.205,0.205,0.205,0.205,0,0.1354,0.138,0.1451,0.1464,0.151,0.1559,0.1621,0.1676,0.1757,0.1801,0.1878,0.1914,0.1983,0.2017,0.2019,0.1981,0.2062,0.1913,0.1897,0.1999,0.1993,0.198,0.1971,0.2052,0.2051,0.2051,0.2051,0,0.1305,0.1351,0.139,0.1465,0.1495,0.1531,0.1625,0.1662,0.1754,0.1815,0.1847,0.1939,0.1978,0.202,0.2058,0.1997,0.198,0.1947,0.2058,0.2048,0.1815,0.181,0.1816,0.1812,0.1809,0.1806,0.1803,0,0.1276,0.1293,0.1385,0.1413,0.1454,0.1519,0.1558,0.1655,0.1689,0.1806,0.1818,0.19,0.1943,0.189,0.1952,0.1942,0.1918,0.1894,0.1844,0.1808,0.1793,0.1793,0.1792,0.1798,0.1797,0.1796,0.1795,0,0.1225,0.1276,0.131,0.1367,0.1417,0.1458,0.1521,0.1535,0.1633,0.1734,0.1735,0.1745,0.1785,0.1803,0.1813,0.1804,0.1899,0.1856,0.1863,0.1816,0.1785,0.1773,0.1777,0.1782,0.1784,0.1785,0.1786,0,0.1198,0.121,0.1266,0.1303,0.1362,0.1367,0.1412,0.1434,0.1476,0.1592,0.1593,0.1674,0.1763,0.1732,0.1743,0.1723,0.1689,0.1619,0.1637,0.1652,0.1581,0.1516,0.1418,0,0,0,0,0,0.1158,0.1158,0.1191,0.1216,0.1269,0.1298,0.1369,0.1412,0.1506,0.146,0.1516,0.1538,0.1542,0.1593,0.1538,0.1682,0.1708,0.1611,0.164,0.1714,0.1728,0.166,0,0,0,0,0,0,0.1128,0.1159,0.116,0.1135,0.1136,0.1172,0.1212,0.1275,0.1251,0.1353,0.1364,0.144,0.1475,0.1555,0.1508,0.1522,0.1505,0.1668,0.1664,0.1706,0.1719,0.173,0.1665,0,0,0,0,0]},{"header":{"parameterUnit":"m.s-1","parameterCategory":2,"la1":30.2991,"la2":30.254,"lo1":-89.0895,"lo2":-89.0444,"dy":0.0017,"dx":0.0017,"nx":28,"ny":28,"refTime":"2024-12-12T09:00:00:Z","depth":"4","parameterNumber":3,"parameterNumberName":"V-component_of_CURRENTS"},"data":[0,0,0,0,0,0,0,0,0,0,0,0,0,0,0,0,0,0,0,0,0,0,0,0,0,0,0,0,0,0,0,0,0,0,0,0,0,0,0,0,0,0,0,0,0,0,0,0,0,0,0,0,0,0,0,0,0,0,0.016,0.016,0,0.0149,0.0149,0.0149,0.0147,0.0147,0.0147,0.0147,0.0148,0.0148,0.0148,0,0,0,0,0,0,0,0,0,0,0,0,0,0.0161,0.0161,0.016,0.016,0.016,0.0149,0.0149,0.0149,0.0147,0.0147,0.0147,0.0147,0.0148,0.0148,0.0148,0,0,0,0,0,0,0,0,0,0,0,0,0,0.0156,0.0161,0.016,0.0158,0.0158,0.0149,0.0149,0.0149,0.0147,0.0147,0.0147,0.0147,0.0149,0.0148,0.0148,0.0144,0,0,0.0148,0.0148,0,0,0,0,0,0,0,0,0.0157,0.0156,0.0159,0.0158,0.0158,0.015,0.015,0.0148,0.0147,0.0151,0.0147,0.0147,0.015,0.015,0.0147,0.0144,0.0144,0.0148,0.0148,0.0148,0.0148,0,0,0,0,0,0,0,0.0157,0.0157,0.0156,0.0158,0.0158,0.0151,0.0151,0.0149,0.015,0.015,0.015,0.0149,0.015,0.0147,0.0147,0.0144,0.0148,0.0148,0.0148,0.0148,0.0147,0.0147,0,0,0,0,0,0,0.016,0.0157,0.0156,0.0155,0.0158,0.0151,0.015,0.0152,0.0149,0.0149,0.0149,0.0149,0.0147,0.0147,0.0147,0.0159,0.0148,0.0148,0.0148,0.0147,0.0147,0.0147,0,0,0,0,0,0,0.016,0.016,0.0157,0.0156,0.0155,0.0151,0.0152,0.0152,0.0152,0.0148,0.0148,0.0151,0.0147,0.0147,0.015,0.0158,0.0148,0.0148,0.0147,0.0147,0.0147,0.0172,0,0,0,0,0,0,0.016,0.016,0.0163,0.0156,0.0155,0.0156,0.0152,0.0151,0.0151,0.0151,0.015,0.015,0.0147,0.015,0.015,0.0158,0.0147,0.0146,0.0147,0.0147,0.0171,0.0173,0.0174,0,0,0,0,0,0.016,0.0165,0.0164,0.0164,0.016,0.0157,0.0155,0.0153,0.0151,0.0153,0.0152,0.015,0.015,0.015,0.015,0.0158,0.0146,0.0147,0.0147,0.017,0.0172,0.0174,0,0,0,0,0,0,0.0166,0.0165,0.0163,0.0167,0.0164,0.0156,0.0158,0.0154,0.0154,0.0155,0.0151,0.0151,0.0156,0.0151,0.0151,0.0157,0.0148,0.0148,0.0166,0.0168,0.0169,0.018,0.0147,0,0,0,0,0,0.0169,0.0174,0.0168,0.0172,0.0171,0.0164,0.0163,0.0161,0.0158,0.0158,0.0157,0.0155,0.0155,0.0157,0.0155,0.0159,0.0147,0.0163,0.0164,0.0166,0.0174,0.016,0.0162,0.0147,0.0147,0.0147,0,0,0.0172,0.0172,0.0175,0.0174,0.0171,0.0177,0.0164,0.0164,0.0172,0.0159,0.0169,0.0161,0.0157,0.0162,0.0164,0.016,0.0161,0.0166,0.0167,0.0174,0.016,0.0162,0.0163,0.0147,0.0147,0.0147,0,0,0.0182,0.0181,0.0189,0.0189,0.0188,0.0186,0.0187,0.0181,0.0181,0.0186,0.0179,0.0177,0.0177,0.0176,0.0175,0.0184,0.0169,0.0181,0.0202,0.0189,0.019,0.0191,0.0168,0.0167,0.0184,0.0184,0.0184,0,0.0187,0.0199,0.019,0.0199,0.0205,0.0192,0.0205,0.0202,0.0199,0.0204,0.0193,0.0192,0.0185,0.0195,0.0197,0.0189,0.0175,0.0196,0.0192,0.0192,0.0193,0.017,0.0168,0.0185,0.0185,0.0185,0.0185,0,0.0204,0.0215,0.022,0.0231,0.0235,0.0242,0.0239,0.0241,0.0237,0.0237,0.0241,0.0225,0.0226,0.0219,0.0212,0.0215,0.0201,0.0194,0.0189,0.0196,0.0171,0.0168,0.0187,0.0186,0.0186,0.0186,0,0,0.0214,0.023,0.0234,0.0248,0.0254,0.026,0.0271,0.0281,0.0297,0.0282,0.0296,0.0284,0.0273,0.027,0.0255,0.0242,0.0226,0.0222,0.0221,0.0203,0.0189,0.0171,0.0166,0.0218,0.0218,0.0218,0.0167,0,0.0234,0.0261,0.0264,0.0294,0.0309,0.0306,0.0322,0.0329,0.0329,0.0338,0.0315,0.0322,0.0293,0.0293,0.0275,0.0243,0.0223,0.024,0.0182,0.018,0.0166,0.0164,0.0218,0.0165,0.0164,0.0164,0.0164,0,0.0254,0.0272,0.0304,0.0335,0.0341,0.0357,0.0384,0.0399,0.0404,0.0403,0.0398,0.0378,0.0359,0.033,0.0275,0.0288,0.0242,0.0209,0.0206,0.0182,0.0158,0.0157,0.016,0.016,0.016,0.0161,0.0161,0,0.0271,0.0303,0.0332,0.0342,0.037,0.0386,0.0405,0.0422,0.0444,0.0447,0.0456,0.0427,0.0414,0.0357,0.0283,0.0281,0.0215,0.0203,0.014,0.0138,0.0159,0.0159,0.0161,0.0161,0.0161,0.0161,0.0162,0,0.0292,0.0318,0.0344,0.036,0.0404,0.0414,0.0462,0.0472,0.0495,0.0527,0.0494,0.0498,0.0421,0.0371,0.0298,0.0212,0.0224,0.0145,0.0126,0.0169,0.017,0.0157,0.0157,0.0159,0.016,0.016,0.0161,0,0.0305,0.0321,0.0359,0.0395,0.0412,0.0445,0.05,0.0533,0.0549,0.0584,0.0585,0.0553,0.0489,0.0401,0.0307,0.0236,0.0153,0.0118,0.0166,0.0151,0.0078,0.0081,0.0045,0.0044,0.0043,0.0043,0.0042,0,0.0313,0.0333,0.0385,0.0413,0.0431,0.0483,0.0522,0.0557,0.0592,0.0615,0.0628,0.0582,0.0544,0.0397,0.0302,0.0159,0.0135,0.0082,0.0082,0.0083,0.0068,0.0072,0.0075,0.0041,0.0041,0.004,0.004,0,0.0328,0.0346,0.0377,0.0435,0.0479,0.0534,0.0587,0.0614,0.0655,0.067,0.0659,0.0585,0.0512,0.0397,0.0285,0.0181,0.0112,0.0073,0.0074,0.0073,0.0077,0.0064,0.0068,0.0037,0.0037,0.0038,0.0038,0,0.0339,0.0361,0.0401,0.0452,0.0509,0.0561,0.0594,0.0629,0.0663,0.0683,0.0678,0.0601,0.0562,0.0409,0.0307,0.0202,0.0172,0.0125,0.0123,0.0125,0.0161,0.0177,0.0155,0,0,0,0,0,0.0348,0.037,0.0416,0.0469,0.0527,0.056,0.0625,0.0654,0.0691,0.0685,0.0683,0.0613,0.0468,0.0412,0.0304,0.0282,0.0149,0.015,0.0093,0.002,0.0024,0.005,0,0,0,0,0,0,0.0351,0.0391,0.041,0.0472,0.051,0.0575,0.0617,0.0645,0.0644,0.0663,0.0593,0.0567,0.0432,0.0527,0.0295,0.0266,0.021,0.009,0.0087,0.0018,0.0022,0.0024,0.0053,0,0,0,0,0]}]]